Location: Unspecified
(0.0000°N, 0.0000°E)
Time: 13:36:22
(UTC+00:00)

deb Delta 104 - Visible Passes

Search period start: 20 July 2025 00:00
Search period end: 30 July 2025 00:00
Orbit: 1428 x 1487 km, 102.0° (Epoch: 17 July)

Date Brightness Start Highest point End Pass type
(mag) Time Alt. Az. Time Alt. Az. Time Alt. Az.
20 Jul ? 03:38:22 10° NE 03:45:18 29° ESE 03:52:09 10° SSE visible
20 Jul ? 05:30:15 10° N 05:37:49 38° WNW 05:45:21 10° SW visible
21 Jul ? 04:31:58 10° NNE 04:40:22 79° ESE 04:48:40 10° SSW visible
22 Jul ? 03:36:07 10° NE 03:42:55 28° ESE 03:49:36 10° SSE visible
22 Jul ? 05:27:46 10° N 05:35:25 40° WNW 05:43:02 10° SW visible
23 Jul ? 04:29:35 10° NNE 04:37:58 76° ESE 04:46:15 10° S visible
24 Jul ? 03:33:54 10° NE 03:40:31 26° ESE 03:47:03 10° SSE visible
24 Jul ? 05:25:18 10° N 05:33:01 42° WNW 05:40:43 10° SW visible
25 Jul ? 04:27:13 10° NNE 04:35:34 72° ESE 04:43:49 10° S visible
26 Jul ? 03:31:40 10° NE 03:38:06 25° ESE 03:44:29 10° SSE visible
26 Jul ? 05:22:50 10° N 05:30:38 44° WNW 05:38:23 10° SW visible
27 Jul ? 04:24:51 10° NNE 04:33:10 69° ESE 04:41:23 10° S visible
28 Jul ? 03:29:28 10° ENE 03:35:43 24° ESE 03:41:54 10° SSE visible
28 Jul ? 05:20:22 10° N 05:28:14 46° WNW 05:36:03 10° SW visible
29 Jul ? 04:22:29 10° NNE 04:30:46 66° ESE 04:38:56 10° S visible
